Wind_Speed
63 52 50 52 45 44 42 38 38 38 34 31 29 30 29 27 25 24 24 24 25 24 21 21 23 24 25 27 30 33 34 36 37 39 40 40 40 41 42 43 44 44 44 45
60 53 46 44 44 46 43 43 43 39 38 37 33 29 28 27 25 26 27 27 29 28 26 29 31 30 31 31 35 38 40 40 40 38 39 39 39 39 40 41 43 42 42 42
51 49 47 45 47 49 48 46 43 39 36 35 36 37 36 35 35 36 36 36 38 39 39 37 36 35 36 38 42 40 40 38 39 40 41 41 40 39 39 39 39 39 39 40
51 49 47 46 45 44 44 45 46 46 46 44 43 41 39 38 35 34 33 35 37 38 39 38 38 37 40 42 41 40 37 37 39 41 41 39 37 36 37 37 38 38 39 40
53 48 50 48 44 46 48 47 46 45 44 45 45 45 38 38 36 35 35 35 36 36 36 37 39 39 37 37 38 38 38 40 41 42 38 37 37 37 37 38 38 39 41 42
47 47 53 52 51 51 50 49 49 47 47 48 45 44 41 38 35 35 37 35 36 35 33 32 32 32 35 38 41 42 45 45 44 43 41 39 39 40 40 40 41 43 44 45
51 50 55 56 56 55 53 53 52 51 51 51 46 45 41 37 34 34 36 36 36 34 35 36 35 36 39 41 43 46 49 49 48 43 41 41 42 42 43 43 45 45 45 46
56 56 51 52 55 55 56 56 55 54 52 50 47 46 43 37 33 30 31 33 35 36 36 37 39 41 42 43 45 46 45 43 43 41 42 43 44 44 45 46 45 45 45 45
44 56 54 52 51 56 57 57 55 54 54 53 51 46 42 38 33 33 33 33 36 37 38 40 41 43 45 46 46 45 44 43 42 42 43 44 45 46 46 45 44 43 43 43
44 45 55 52 51 51 51 52 54 55 55 53 50 47 43 39 37 37 36 36 37 39 41 43 45 46 46 47 47 47 46 43 43 44 45 45 45 44 43 42 41 40 41 44
40 48 52 51 48 46 46 49 52 52 56 56 53 47 44 44 42 42 41 41 42 42 43 45 48 49 48 47 47 46 45 45 44 45 46 45 43 41 39 38 39 40 42 43
41 50 44 55 51 48 45 41 39 45 50 50 51 50 49 48 47 44 44 44 46 47 47 48 46 44 45 45 46 45 45 45 45 45 45 43 39 36 36 38 39 40 40 39
41 41 43 45 52 55 54 52 49 46 44 46 48 49 51 51 50 50 50 50 50 52 50 45 43 42 42 42 43 45 46 46 45 42 38 35 34 36 36 38 38 37 35 31
42 42 42 41 38 39 46 50 52 52 51 50 50 52 53 52 53 53 53 53 52 47 42 39 39 40 39 40 42 42 41 39 36 33 33 34 35 35 36 36 35 33 32 34
36 38 43 45 47 46 43 42 45 51 52 57 55 58 56 57 57 56 57 50 45 43 39 35 36 37 35 35 35 35 35 33 31 33 34 34 33 34 33 33 32 33 34 39
34 33 37 40 43 45 47 46 45 45 48 51 52 53 59 57 54 51 49 47 45 40 37 34 34 32 31 31 29 30 27 28 29 32 34 32 32 32 32 32 32 35 41 45
36 33 32 34 35 37 41 44 46 48 49 47 44 36 39 44 46 43 43 41 37 34 34 32 30 30 29 27 26 25 28 30 31 29 31 32 33 32 33 34 37 41 47 50
40 37 36 35 33 36 35 36 37 39 39 40 40 33 33 33 33 37 38 31 26 28 28 24 24 24 24 25 25 26 27 28 28 31 33 32 30 32 34 40 44 48 51 54
43 42 40 40 37 38 35 31 27 27 25 28 27 25 22 18 15 9 12 14 17 17 19 21 21 21 22 25 28 29 26 30 32 33 31 30 30 36 42 46 48 51 53 57
41 44 45 45 43 37 38 35 28 27 25 28 24 22 21 19 13 16 12 8 11 14 18 20 21 22 24 26 31 31 31 32 31 31 33 35 39 42 45 47 50 52 55 57
48 48 49 48 44 42 38 34 29 29 26 25 23 22 20 18 17 11 11 13 16 15 16 20 24 26 26 30 30 30 32 31 32 33 37 39 42 46 49 52 54 56 57 58
46 46 47 50 48 44 42 40 32 28 27 25 23 23 21 19 13 10 10 14 15 14 15 19 24 26 29 32 33 33 32 35 38 41 43 46 49 51 53 54 56 57 58 59
42 43 42 49 51 45 46 42 40 37 32 30 30 26 24 21 17 15 15 17 20 21 23 22 27 28 31 34 34 34 37 41 43 45 47 50 54 57 57 56 57 59 59 59
48 43 42 47 52 49 47 39 38 45 40 30 29 30 28 27 23 21 21 25 26 26 27 26 29 33 33 34 38 42 45 45 48 49 51 53 56 58 58 57 57 58 59 61
42 49 46 49 51 51 50 49 46 39 29 31 34 36 35 34 31 28 26 31 32 32 33 32 34 38 39 41 43 44 46 48 51 53 54 56 58 59 57 57 56 58 60 62
50 42 47 48 51 54 52 51 51 45 41 40 37 36 34 35 35 34 33 37 37 38 38 38 39 41 44 46 47 49 50 53 56 57 57 56 56 57 57 56 59 60 60 52
Wind_Direction
205 202 211 212 209 201 206 212 216 220 222 226 223 221 225 231 238 243 244 249 254 261 264 266 270 276 279 286 289 289 291 292 293 294 293 292 291 289 288 289 290 290 291 291
216 209 197 203 200 203 203 207 212 213 216 221 222 222 224 229 234 243 251 258 263 263 267 271 277 279 281 286 289 289 289 291 294 294 293 292 292 291 292 292 291 291 292 293
218 216 210 207 201 202 206 212 217 218 220 224 228 230 236 240 244 250 255 261 267 269 271 274 276 278 282 286 292 288 286 290 293 292 293 294 294 294 295 295 297 298 297 298
215 210 209 207 208 209 211 213 217 218 220 225 227 230 235 244 250 253 258 265 270 275 272 273 275 276 280 284 284 281 283 285 287 290 292 292 293 294 294 294 296 297 299 300
213 218 214 212 215 214 216 219 221 221 224 225 226 233 228 239 247 252 255 261 263 271 272 271 272 273 275 278 280 282 283 285 288 290 288 292 294 295 295 296 299 299 299 300
225 228 220 213 213 217 220 223 226 227 230 232 231 237 236 237 243 251 255 257 260 263 266 268 269 270 273 278 282 284 283 284 286 286 285 290 292 293 294 296 297 297 299 300
221 225 224 224 217 220 222 223 226 229 230 232 236 240 245 244 247 249 249 254 259 262 264 267 271 274 278 281 283 284 283 280 281 281 284 286 289 291 293 294 295 298 298 297
219 217 221 223 226 228 229 226 231 234 236 242 243 242 246 249 252 246 249 254 257 259 262 265 268 273 276 278 281 282 281 277 276 279 282 285 288 291 293 294 295 295 295 297
220 222 227 224 227 228 227 230 234 237 240 241 244 244 246 249 247 251 250 252 254 257 262 266 270 272 275 277 279 277 275 275 276 279 282 285 287 290 291 291 291 291 293 295
220 223 226 225 223 226 229 234 236 237 239 243 245 245 250 249 257 258 257 257 257 260 262 267 271 272 275 277 274 272 271 274 276 278 282 285 287 287 286 286 286 288 292 295
221 224 227 222 222 225 230 234 236 237 242 244 248 250 250 256 261 260 261 261 261 263 265 271 275 275 276 274 270 269 269 271 274 279 283 284 283 282 281 281 284 287 292 296
227 232 229 227 230 232 235 237 235 235 239 241 243 246 252 258 261 262 264 267 268 270 274 277 276 275 271 269 268 268 270 273 277 280 282 281 278 277 279 283 286 290 293 295
212 216 225 231 229 231 233 236 239 237 236 239 241 246 254 261 261 266 267 270 270 274 275 274 272 271 270 270 270 272 275 276 278 279 276 273 275 279 284 286 290 293 293 295
211 215 219 228 237 240 241 245 243 242 244 247 250 253 256 259 263 266 268 271 275 278 274 269 266 266 268 272 274 273 272 272 273 271 272 275 279 282 286 287 289 291 291 294
217 218 218 219 224 230 235 234 238 242 247 250 253 253 255 256 260 262 267 273 275 274 271 267 267 268 272 271 270 269 270 271 268 270 273 276 280 279 282 283 285 288 293 297
215 218 219 223 228 229 229 231 237 241 243 248 250 252 254 258 265 266 266 267 267 266 267 270 272 271 268 268 267 268 270 268 268 274 274 275 278 278 276 278 286 291 295 297
222 226 225 224 226 230 231 231 234 234 235 239 245 253 255 253 256 259 260 261 261 267 271 274 267 261 262 263 264 261 263 268 269 273 274 275 272 266 272 284 290 295 296 299
224 225 228 223 219 225 227 229 235 240 242 244 245 247 251 255 259 260 262 264 259 254 262 260 260 263 261 265 269 268 265 268 272 270 272 267 266 270 282 289 293 294 299 301
223 226 226 228 230 229 224 225 232 233 229 232 233 234 235 239 249 271 254 248 255 272 281 286 278 267 260 259 259 264 265 265 264 266 264 268 276 280 283 289 295 297 298 298
215 221 227 230 232 233 228 232 237 241 236 240 234 237 242 255 243 214 265 270 270 268 269 270 264 254 254 254 261 264 264 266 263 261 273 282 289 289 290 292 293 293 296 301
214 217 223 228 231 231 232 237 244 252 243 240 237 234 233 229 228 240 266 285 287 279 268 260 267 266 266 271 274 272 270 267 266 276 283 286 286 289 291 292 294 297 298 300
216 217 218 221 227 229 232 238 237 232 236 239 232 228 223 224 230 244 266 276 270 256 271 275 272 270 274 272 272 272 272 271 276 280 282 285 287 287 289 293 295 296 298 299
214 213 217 221 226 225 228 234 236 235 237 238 237 229 225 227 231 243 255 259 263 261 270 268 262 272 276 275 270 271 274 278 280 283 285 289 290 290 291 293 295 297 298 300
226 220 221 216 217 219 228 234 240 242 243 236 236 235 234 226 236 242 255 257 260 261 262 264 260 264 271 271 273 277 279 285 288 288 289 292 292 290 292 295 295 296 299 302
216 226 223 217 217 220 223 233 240 238 227 229 233 236 229 229 231 238 245 255 253 258 261 262 261 268 273 276 277 279 282 285 287 290 291 291 291 292 293 293 295 299 300 298
213 217 226 226 223 224 222 223 233 238 241 232 227 229 233 234 236 241 246 250 255 260 262 262 264 269 276 278 279 282 285 286 287 287 288 290 291 290 292 295 299 297 295 294
Height
5733 5742 5750 5760 5769 5778 5785 5790 5795 5800 5804 5808 5812 5814 5817 5819 5823 5825 5827 5828 5830 5832 5836 5838 5839 5840 5840 5839 5838 5836 5834 5833 5833 5832 5830 5828 5826 5823 5820 5818 5815 5811 5809 5807
5728 5739 5750 5755 5761 5769 5776 5782 5788 5792 5797 5802 5806 5810 5813 5815 5819 5820 5821 5823 5824 5827 5830 5832 5833 5833 5833 5832 5831 5830 5827 5826 5824 5823 5821 5819 5817 5814 5811 5808 5805 5803 5801 5798
5723 5733 5735 5743 5752 5760 5767 5775 5782 5788 5792 5796 5800 5803 5807 5810 5813 5816 5818 5819 5818 5820 5822 5824 5825 5824 5824 5823 5822 5821 5820 5819 5817 5815 5813 5811 5808 5806 5804 5801 5799 5796 5793 5790
5714 5722 5729 5737 5745 5754 5762 5768 5773 5779 5783 5787 5792 5796 5799 5803 5807 5810 5812 5813 5812 5812 5813 5814 5816 5816 5815 5815 5813 5813 5813 5812 5810 5809 5806 5803 5801 5799 5797 5795 5792 5789 5786 5783
5707 5713 5721 5730 5740 5747 5755 5761 5765 5770 5776 5780 5783 5786 5795 5795 5800 5804 5806 5807 5807 5806 5806 5806 5807 5807 5808 5807 5805 5805 5805 5804 5803 5801 5799 5796 5794 5792 5789 5787 5784 5781 5778 5774
5699 5708 5713 5723 5732 5739 5747 5754 5758 5763 5767 5770 5776 5779 5784 5790 5794 5797 5798 5798 5800 5799 5800 5800 5799 5800 5800 5799 5799 5798 5797 5796 5795 5793 5792 5789 5787 5784 5782 5779 5776 5773 5769 5766
5693 5700 5706 5714 5722 5728 5737 5745 5749 5754 5757 5760 5768 5771 5775 5782 5785 5790 5790 5790 5792 5793 5792 5792 5793 5793 5793 5792 5791 5790 5789 5788 5787 5785 5784 5782 5779 5776 5773 5770 5767 5764 5761 5757
5687 5694 5700 5707 5714 5723 5728 5736 5742 5745 5749 5755 5759 5762 5767 5773 5777 5780 5781 5783 5784 5784 5785 5785 5785 5785 5784 5784 5783 5782 5780 5779 5778 5777 5775 5773 5771 5769 5765 5762 5759 5756 5752 5748
5682 5688 5693 5702 5709 5716 5721 5726 5734 5738 5741 5744 5748 5753 5759 5762 5767 5770 5772 5774 5775 5776 5776 5776 5776 5776 5775 5774 5774 5773 5771 5770 5770 5769 5766 5764 5762 5760 5757 5754 5750 5746 5743 5739
5675 5682 5689 5695 5701 5706 5712 5720 5725 5727 5730 5734 5738 5743 5749 5753 5758 5760 5762 5764 5766 5767 5767 5767 5766 5765 5764 5764 5763 5761 5760 5761 5761 5759 5757 5755 5753 5750 5747 5744 5740 5737 5733 5730
5667 5675 5682 5687 5691 5697 5703 5708 5713 5719 5723 5726 5731 5736 5741 5743 5746 5749 5751 5754 5756 5757 5756 5756 5756 5754 5754 5752 5751 5751 5752 5750 5749 5748 5747 5745 5743 5741 5737 5734 5731 5728 5725 5721
5656 5665 5672 5680 5685 5690 5694 5700 5703 5707 5713 5718 5722 5727 5730 5734 5736 5738 5741 5743 5744 5745 5744 5744 5744 5743 5741 5741 5741 5741 5741 5741 5740 5738 5737 5736 5733 5731 5728 5726 5722 5719 5716 5712
5648 5652 5661 5667 5673 5677 5683 5689 5693 5699 5704 5709 5715 5720 5721 5723 5726 5728 5729 5730 5731 5733 5733 5733 5732 5732 5731 5732 5732 5732 5731 5731 5730 5729 5727 5726 5724 5722 5720 5717 5713 5710 5706 5703
5639 5646 5654 5663 5670 5673 5677 5683 5686 5690 5696 5701 5707 5711 5713 5715 5715 5716 5717 5718 5719 5721 5722 5722 5723 5723 5723 5723 5723 5722 5721 5720 5720 5719 5718 5717 5715 5713 5710 5708 5704 5701 5697 5695
5634 5639 5644 5650 5656 5661 5666 5669 5674 5680 5687 5690 5701 5700 5703 5703 5703 5705 5705 5709 5711 5711 5712 5713 5714 5714 5714 5713 5713 5712 5712 5711 5711 5710 5709 5708 5706 5703 5701 5698 5696 5693 5690 5686
5628 5632 5637 5640 5645 5650 5654 5660 5666 5671 5673 5678 5683 5690 5691 5693 5696 5696 5696 5698 5700 5701 5702 5704 5704 5705 5704 5704 5704 5704 5704 5703 5703 5702 5700 5698 5696 5694 5691 5689 5687 5685 5681 5676
5622 5626 5630 5634 5638 5641 5647 5654 5657 5660 5663 5669 5674 5684 5682 5681 5682 5684 5685 5686 5689 5691 5692 5694 5695 5695 5695 5696 5696 5696 5695 5695 5694 5693 5691 5689 5687 5684 5683 5681 5679 5675 5671 5666
5614 5619 5622 5627 5629 5633 5644 5647 5651 5655 5658 5661 5665 5669 5670 5672 5674 5674 5676 5679 5680 5681 5682 5685 5686 5687 5687 5687 5688 5688 5688 5688 5687 5684 5682 5680 5679 5677 5675 5672 5669 5666 5661 5656
5607 5610 5616 5620 5625 5634 5637 5642 5644 5646 5653 5652 5657 5661 5662 5664 5666 5669 5669 5672 5674 5677 5678 5679 5679 5678 5679 5680 5681 5680 5680 5678 5676 5674 5673 5672 5671 5669 5665 5662 5659 5655 5650 5645
5597 5601 5607 5612 5618 5625 5630 5635 5638 5642 5647 5646 5650 5651 5654 5657 5660 5661 5664 5666 5668 5670 5670 5669 5670 5672 5674 5673 5673 5672 5671 5669 5667 5665 5665 5664 5662 5658 5655 5651 5648 5643 5638 5632
5585 5590 5597 5603 5610 5618 5622 5627 5630 5634 5641 5640 5643 5645 5648 5650 5652 5655 5657 5659 5659 5660 5662 5663 5665 5665 5666 5665 5665 5664 5662 5661 5659 5658 5656 5654 5651 5647 5644 5640 5635 5629 5623 5617
5578 5583 5586 5595 5601 5610 5615 5616 5622 5626 5629 5633 5635 5637 5640 5642 5644 5645 5648 5650 5652 5653 5655 5656 5656 5656 5657 5657 5657 5655 5654 5652 5651 5648 5646 5643 5639 5635 5630 5625 5620 5615 5608 5602
5570 5575 5580 5588 5596 5597 5604 5608 5610 5617 5621 5624 5628 5631 5633 5635 5636 5638 5641 5643 5645 5646 5647 5647 5648 5648 5647 5647 5647 5646 5644 5643 5640 5637 5634 5631 5627 5622 5617 5611 5606 5600 5593 5587
5557 5562 5568 5577 5584 5589 5594 5598 5601 5605 5610 5615 5619 5623 5625 5627 5628 5630 5631 5634 5635 5635 5636 5636 5636 5637 5636 5635 5635 5634 5633 5630 5627 5624 5620 5616 5612 5608 5603 5596 5590 5585 5578 5573
5545 5552 5559 5566 5572 5576 5583 5588 5589 5593 5599 5604 5609 5613 5614 5616 5618 5619 5621 5623 5624 5625 5626 5626 5625 5626 5626 5624 5622 5620 5618 5616 5614 5611 5606 5602 5597 5592 5586 5581 5575 5570 5564 5557
5536 5542 5548 5557 5559 5565 5569 5572 5575 5586 5591 5594 5598 5602 5603 5606 5609 5610 5611 5613 5614 5615 5616 5614 5613 5614 5614 5612 5609 5609 5605 5602 5599 5594 5590 5585 5581 5576 5571 5566 5561 5555 5548 5542